Flag for Germany Weather past 2 weeks in Alfeld (Leine), Lower Saxony, Germany

Now
55 °F

Broken clouds.


Feels Like: 52 °F
Forecast: 39 / 51 °F
Wind: 15 mph from Southwest

Location: Braunschweig

Current Time: Oct 21, 2014 at 1:25:09 PM

Latest Report: Oct 21, 2014 at 12:50 PM


Visibility: N/A

Pressure: 29.68 "Hg

Humidity: 77%

Dew point: 48 °F

Location of Alfeld (Leine)Location

Historic Weather in Alfeld (Leine) — Graph

°F

Alfeld (Leine) temperature yesterday

Maximum temperature yesterday: 61 °F (at 1:20 PM)
Minimum temperature yesterday: 54 °F (at 6:50 PM)
Average temperature yesterday: 57 °F

Past Weeks' High & Low Weather Summary

 TemperatureHumidityPressure
High72 °F (Oct 19, 3:50 PM)100% (Oct 7, 6:50 AM)30.18 "Hg (Oct 7, 6:50 AM)
Low48 °F (Oct 15, 9:20 PM)52% (Oct 14, 2:20 PM)29.59 "Hg (Oct 7, 1:20 PM)
Average59 °F88%29.80 "Hg
* Reported Oct 6 12:20 PM — Oct 21 12:20 PM, Alfeld (Leine), Weather by CustomWeather, © 2014

Note: Actual official high and low records may vary slightly from our data, if they occured in-between our weather recording intervals... More about our weather records

Advertising

Alfeld (Leine) weather history for previous 24 hours

 ConditionsComfort  
Time TempWeatherWind HumidityBarometerVisibility
12:20 PM
Oct 21
57 °FBroken clouds.17 mph77%29.68 "HgN/A
11:50 AM55 °FBroken clouds.13 mph82%29.71 "HgN/A
11:20 AM57 °FSunny.17 mph77%29.71 "Hg10 mi
10:50 AM57 °FSunny.16 mph77%29.74 "Hg10 mi
10:20 AM55 °FSunny.13 mph82%29.74 "Hg10 mi
9:50 AM55 °FSunny.13 mph82%29.74 "Hg10 mi
9:20 AM54 °FSunny.12 mph88%29.77 "Hg10 mi
8:50 AM54 °FClear.10 mph88%29.77 "Hg10 mi
8:20 AM54 °FClear.10 mph88%29.77 "Hg10 mi
7:50 AM54 °FClear.9 mph88%29.77 "Hg10 mi
7:20 AM54 °FClear.9 mph94%29.77 "Hg10 mi
6:50 AM54 °FClear.9 mph94%29.80 "Hg10 mi
6:20 AM54 °FClear.10 mph94%29.80 "Hg10 mi
9:50 PM
Oct 20
55 °FMostly cloudy.6 mph94%29.92 "HgN/A
8:50 PM55 °FPartly cloudy.7 mph94%29.92 "HgN/A
8:20 PM55 °FMostly cloudy.8 mph94%29.92 "HgN/A
7:50 PM55 °FPassing clouds.8 mph94%29.92 "HgN/A
7:20 PM55 °FPassing clouds.9 mph100%29.92 "HgN/A
6:50 PM54 °FPartly sunny.6 mph100%29.92 "HgN/A
6:20 PM55 °FPartly sunny.6 mph94%29.92 "HgN/A
5:50 PM55 °FScattered clouds.8 mph100%29.92 "HgN/A
5:20 PM55 °FPassing clouds.9 mph100%29.92 "HgN/A
4:50 PM55 °FOvercast.13 mph100%29.92 "HgN/A
4:20 PM57 °FPassing clouds.9 mph100%29.92 "HgN/A
3:50 PM57 °FMostly cloudy.8 mph100%29.92 "HgN/A
3:20 PM57 °FLight rain. Mostly cloudy.10 mph94%29.92 "Hg6 mi
3:00 PM59 °FLight rain. Mostly cloudy.16 mph82%29.95 "HgN/A
2:20 PM59 °FLight rain. Mostly cloudy.20 mph82%29.92 "HgN/A
1:50 PM59 °FCloudy.17 mph82%29.92 "HgN/A
1:20 PM61 °FMostly cloudy.18 mph77%29.92 "HgN/A
Weather by CustomWeather, © 2014

See weather overviewHow to use our weather pages